Weather in Greifswald

Germany     54°04′30″N   13°24′01″E
temp.,
°C
wind,
m/s
gust,
m/s
humid.,
%
clouds,
%
prec.,
mm/h
press.,
hPa
HPBL,
m
8 august, mon
mon823:00+15e126949 0.0 102425
02:00+14sse227493 0.0 102430
05:00+15ene007437 0.0 102423
08:00+18nnw11585 0.0 1025235
11:00+22nnw22435 0.0 10251459
14:00+24n343896 0.0 10242044
17:00+22ne434957 0.0 10241208
20:00+20ne345981 0.0 1025218
9 august, tue
tue923:00+18ene2267100 0.0 102683
02:00+18nne226895 0.0 102670
05:00+16n237453 0.0 102687
08:00+19nne33593 0.0 1027473
11:00+22ne44453 0.0 10271333
14:00+24ne534051 0.0 10271786
17:00+23nne5443100 0.0 10271109
20:00+19ene466132 0.0 1027241
10 august, wed
wed1023:00+15ene33815 0.0 102863
02:00+15ene22854 0.0 102840
05:00+15ene228566 0.0 102844
08:00+19ne2367100 0.0 1028339
11:00+23ne434630 0.0 10281186
14:00+25nne534095 0.0 10271495
17:00+24nne534097 0.0 10261011
20:00+19ene3559100 0.0 1026190
11 august, thu
thu1123:00+16ene33725 0.0 102650
02:00+15ene227464 0.0 102534
05:00+15ne23801 0.0 102546
08:00+20ene35571 0.0 1025319
11:00+25ene44385 0.0 1025923
14:00+26ene54345 0.0 10241333
17:00+25ne55354 0.0 1023840
20:00+21ene47555 0.0 1023228
12 august, fri
fri1223:00+17ene477268 0.0 1023108
02:00+17ene3678100 0.0 102390
05:00+16e3381100 0.0 102341
08:00+20se3447100 0.0 1023177
11:00+27ese453124 0.0 10221256
14:00+29e56290 0.0 10211820
17:00+27ene76340 0.0 1020734
20:00+23ene6125129 0.0 1020336